Time,TemperatureF,DewpointF,PressureIn,WindDirection,WindDirectionDegrees,WindSpeedMPH,WindSpeedGustMPH,Humidity,HourlyPrecipIn,Conditions,Clouds,dailyrainin,SoftwareType,DateUTC
2013-10-07 00:10:00,48.0,-99.9,-100.00,West,277,6.0,8.0,-999,0.00,,,0.00,,2013-10-07 05:10:00,
2013-10-07 00:13:00,49.0,-99.9,-100.00,West,275,6.0,8.0,-999,0.00,,,0.00,,2013-10-07 05:13:00,
2013-10-07 00:23:00,49.0,-99.9,-100.00,West,275,6.0,8.0,-999,0.00,,,0.00,,2013-10-07 05:23:00,
2013-10-07 00:44:00,48.0,-99.9,-100.00,West,277,6.0,8.0,-999,0.00,,,0.00,,2013-10-07 05:44:00,
2013-10-07 00:52:00,48.0,-99.9,-100.00,West,277,6.0,8.0,-999,0.00,,,0.00,,2013-10-07 05:52:00,
2013-10-07 01:03:00,48.0,-99.9,-100.00,West,277,6.0,8.0,-999,0.00,,,0.00,,2013-10-07 06:03:00,
2013-10-07 01:43:00,49.0,-99.9,-100.00,West,281,8.0,11.0,-999,0.00,,,0.00,,2013-10-07 06:43:00,
2013-10-07 01:53:00,49.0,-99.9,-100.00,West,281,8.0,11.0,-999,0.00,,,0.00,,2013-10-07 06:53:00,
2013-10-07 02:12:00,49.0,-99.9,-100.00,West,261,7.0,10.0,-999,0.00,,,0.00,,2013-10-07 07:12:00,
2013-10-07 02:22:00,49.0,-99.9,-100.00,West,261,7.0,10.0,-999,0.00,,,0.00,,2013-10-07 07:22:00,
2013-10-07 02:42:00,49.0,-99.9,-100.00,West,265,7.0,9.0,-999,0.00,,,0.00,,2013-10-07 07:42:00,
2013-10-07 02:52:00,49.0,-99.9,-100.00,West,265,7.0,9.0,-999,0.00,,,0.00,,2013-10-07 07:52:00,
2013-10-07 03:12:00,49.0,-99.9,-100.00,WSW,257,7.0,9.0,-999,0.00,,,0.00,,2013-10-07 08:12:00,
2013-10-07 03:22:00,49.0,-99.9,-100.00,WSW,257,7.0,9.0,-999,0.00,,,0.00,,2013-10-07 08:22:00,
2013-10-07 03:42:00,50.0,-99.9,-100.00,West,261,6.0,8.0,-999,0.00,,,0.00,,2013-10-07 08:42:00,
2013-10-07 03:52:00,50.0,-99.9,-100.00,West,261,6.0,8.0,-999,0.00,,,0.00,,2013-10-07 08:52:00,
2013-10-07 04:11:00,51.0,-99.9,-100.00,West,272,6.0,8.0,-999,0.00,,,0.00,,2013-10-07 09:11:00,
2013-10-07 04:22:00,51.0,-99.9,-100.00,West,272,6.0,8.0,-999,0.00,,,0.00,,2013-10-07 09:22:00,
2013-10-07 04:43:00,52.0,-99.9,-100.00,WNW,287,9.0,11.0,-999,0.00,,,0.00,,2013-10-07 09:43:00,
2013-10-07 04:54:00,52.0,-99.9,-100.00,WNW,287,9.0,11.0,-999,0.00,,,0.00,,2013-10-07 09:54:00,
2013-10-07 05:03:00,52.0,-99.9,-100.00,WNW,287,9.0,11.0,-999,0.00,,,0.00,,2013-10-07 10:03:00,
2013-10-07 05:23:00,54.0,-99.9,-100.00,WNW,295,13.0,17.0,-999,0.00,,,0.00,,2013-10-07 10:23:00,
2013-10-07 05:43:00,53.0,-99.9,-100.00,WNW,297,13.0,16.0,-999,0.00,,,0.00,,2013-10-07 10:43:00,
2013-10-07 05:53:00,53.0,-99.9,-100.00,WNW,297,13.0,16.0,-999,0.00,,,0.00,,2013-10-07 10:53:00,
2013-10-07 06:12:00,52.0,-99.9,-100.00,WNW,292,10.0,12.0,-999,0.00,,,0.00,,2013-10-07 11:12:00,
2013-10-07 06:22:00,52.0,-99.9,-100.00,WNW,292,10.0,12.0,-999,0.00,,,0.00,,2013-10-07 11:22:00,
2013-10-07 06:42:00,51.0,-99.9,-100.00,WNW,290,9.0,12.0,-999,0.00,,,0.00,,2013-10-07 11:42:00,
2013-10-07 06:53:00,51.0,-99.9,-100.00,WNW,290,9.0,12.0,-999,0.00,,,0.00,,2013-10-07 11:53:00,
2013-10-07 07:02:00,51.0,-99.9,-100.00,WNW,290,9.0,12.0,-999,0.00,,,0.00,,2013-10-07 12:02:00,
2013-10-07 07:10:00,50.0,-99.9,-100.00,WNW,288,8.0,10.0,-999,0.00,,,0.00,,2013-10-07 12:10:00,
2013-10-07 07:22:00,50.0,-99.9,-100.00,WNW,287,9.0,11.0,-999,0.00,,,0.00,,2013-10-07 12:22:00,
2013-10-07 07:43:00,50.0,-99.9,-100.00,WNW,288,8.0,10.0,-999,0.00,,,0.00,,2013-10-07 12:43:00,
2013-10-07 07:53:00,50.0,-99.9,-100.00,WNW,288,8.0,10.0,-999,0.00,,,0.00,,2013-10-07 12:53:00,
2013-10-07 08:02:00,50.0,-99.9,-100.00,WNW,288,8.0,10.0,-999,0.00,,,0.00,,2013-10-07 13:02:00,
2013-10-07 09:22:00,52.0,-99.9,-100.00,WNW,283,8.0,10.0,-999,-99.99,,,0.00,,2013-10-07 14:22:00,
2013-10-07 09:43:00,54.0,-99.9,-100.00,WNW,283,5.0,7.0,-999,0.00,,,0.00,,2013-10-07 14:43:00,
2013-10-07 09:52:00,54.0,-99.9,-100.00,WNW,283,5.0,7.0,-999,0.00,,,0.00,,2013-10-07 14:52:00,
2013-10-07 10:11:00,55.0,-99.9,-100.00,WNW,295,7.0,10.0,-999,0.00,,,0.00,,2013-10-07 15:11:00,
2013-10-07 10:22:00,55.0,-99.9,-100.00,WNW,295,7.0,10.0,-999,0.00,,,0.00,,2013-10-07 15:22:00,
2013-10-07 10:33:00,55.0,-99.9,-100.00,WNW,295,7.0,10.0,-999,0.00,,,0.00,,2013-10-07 15:33:00,
2013-10-07 10:54:00,57.0,-99.9,-100.00,West,278,5.0,7.0,-999,0.00,,,-99.99,,2013-10-07 15:54:00,
2013-10-07 11:10:00,64.0,-99.9,-100.00,WSW,247,3.0,6.0,-999,0.00,,,0.00,,2013-10-07 16:10:00,
2013-10-07 11:13:00,59.0,-99.9,-100.00,WNW,294,7.0,8.0,-999,0.00,,,0.00,,2013-10-07 16:13:00,
2013-10-07 11:23:00,59.0,-99.9,-100.00,WNW,294,7.0,8.0,-999,0.00,,,0.00,,2013-10-07 16:23:00,
2013-10-07 11:43:00,64.0,-99.9,-100.00,WSW,247,3.0,6.0,-999,0.00,,,0.00,,2013-10-07 16:43:00,
2013-10-07 11:53:00,64.0,-99.9,-100.00,WSW,247,3.0,6.0,-999,0.00,,,0.00,,2013-10-07 16:53:00,
2013-10-07 12:03:00,64.0,-99.9,-100.00,WSW,247,3.0,6.0,-999,0.00,,,0.00,,2013-10-07 17:03:00,
2013-10-07 12:40:00,68.0,-99.9,-100.00,WSW,242,6.0,9.0,-999,0.00,,,0.00,,2013-10-07 17:40:00,
2013-10-07 12:43:00,66.0,-99.9,-100.00,WSW,255,5.0,8.0,-999,0.00,,,0.00,,2013-10-07 17:43:00,
2013-10-07 12:53:00,66.0,-99.9,-100.00,WSW,255,5.0,8.0,-999,0.00,,,0.00,,2013-10-07 17:53:00,
2013-10-07 13:02:00,66.0,-99.9,-100.00,WSW,255,5.0,8.0,-999,0.00,,,0.00,,2013-10-07 18:02:00,
2013-10-07 13:22:00,68.0,-99.9,-100.00,WSW,242,6.0,9.0,-999,0.00,,,0.00,,2013-10-07 18:22:00,
2013-10-07 13:33:00,68.0,-99.9,-100.00,WSW,242,6.0,9.0,-999,0.00,,,0.00,,2013-10-07 18:33:00,
2013-10-07 14:22:00,69.0,-99.9,-100.00,West,269,9.0,12.0,-999,0.00,,,0.00,,2013-10-07 19:22:00,
2013-10-07 14:42:00,70.0,-99.9,-100.00,WSW,257,10.0,14.0,-999,0.00,,,0.00,,2013-10-07 19:42:00,
2013-10-07 14:53:00,70.0,-99.9,-100.00,WSW,257,10.0,14.0,-999,0.00,,,0.00,,2013-10-07 19:53:00,
2013-10-07 15:12:00,70.0,-99.9,-100.00,West,276,11.0,19.0,-999,0.01,,,0.01,,2013-10-07 20:12:00,
2013-10-07 15:22:00,70.0,-99.9,-100.00,West,276,11.0,19.0,-999,0.01,,,0.01,,2013-10-07 20:22:00,
2013-10-07 15:33:00,70.0,-99.9,-100.00,West,276,11.0,19.0,-999,0.01,,,0.01,,2013-10-07 20:33:00,
2013-10-07 15:52:00,71.0,-99.9,-100.00,West,280,11.0,21.0,-999,0.01,,,0.01,,2013-10-07 20:52:00,
2013-10-07 16:02:00,71.0,-99.9,-100.00,West,280,11.0,21.0,-999,0.01,,,0.01,,2013-10-07 21:02:00,
2013-10-07 16:23:00,72.0,-99.9,-100.00,West,280,13.0,16.0,-999,0.00,,,0.01,,2013-10-07 21:23:00,
2013-10-07 16:43:00,72.0,-99.9,-100.00,West,279,10.0,14.0,-999,0.00,,,0.01,,2013-10-07 21:43:00,
2013-10-07 16:55:00,72.0,-99.9,-100.00,West,279,10.0,14.0,-999,0.00,,,0.01,,2013-10-07 21:55:00,
2013-10-07 17:13:00,73.0,-99.9,-100.00,West,277,9.0,12.0,-999,0.00,,,0.01,,2013-10-07 22:13:00,
2013-10-07 17:24:00,73.0,-99.9,-100.00,West,277,9.0,12.0,-999,0.00,,,0.01,,2013-10-07 22:24:00,
2013-10-07 17:43:00,73.0,-99.9,-100.00,West,278,9.0,14.0,-999,0.00,,,-99.99,,2013-10-07 22:43:00,
2013-10-07 17:54:00,73.0,-99.9,-100.00,West,278,9.0,14.0,-999,0.00,,,-99.99,,2013-10-07 22:54:00,
2013-10-07 18:12:00,72.0,-99.9,-100.00,West,272,7.0,10.0,-999,0.00,,,0.01,,2013-10-07 23:12:00,
2013-10-07 18:23:00,72.0,-99.9,-100.00,West,272,7.0,10.0,-999,0.00,,,0.01,,2013-10-07 23:23:00,
2013-10-07 18:42:00,71.0,-99.9,-100.00,West,263,5.0,7.0,-999,0.00,,,0.01,,2013-10-07 23:42:00,
2013-10-07 18:52:00,71.0,-99.9,-100.00,West,263,5.0,7.0,-999,0.00,,,0.01,,2013-10-07 23:52:00,
2013-10-07 19:12:00,69.0,-99.9,-100.00,WSW,241,5.0,7.0,-999,0.00,,,0.01,,2013-10-08 00:12:00,
2013-10-07 19:22:00,69.0,-99.9,-100.00,WSW,241,5.0,7.0,-999,0.00,,,0.01,,2013-10-08 00:22:00,
2013-10-07 19:32:00,69.0,-99.9,-100.00,WSW,241,5.0,7.0,-999,0.00,,,0.01,,2013-10-08 00:32:00,
2013-10-07 19:52:00,67.0,-99.9,-100.00,WSW,243,4.0,6.0,-999,0.00,,,0.01,,2013-10-08 00:52:00,
2013-10-07 20:12:00,66.0,-99.9,-100.00,WSW,244,6.0,8.0,-999,0.00,,,0.01,,2013-10-08 01:12:00,
2013-10-07 20:22:00,66.0,-99.9,-100.00,WSW,244,6.0,8.0,-999,0.00,,,0.01,,2013-10-08 01:22:00,
2013-10-07 20:42:00,64.0,-99.9,-100.00,WSW,247,5.0,6.0,-999,0.00,,,0.01,,2013-10-08 01:42:00,
2013-10-07 20:52:00,64.0,-99.9,-100.00,WSW,247,5.0,6.0,-999,0.00,,,0.01,,2013-10-08 01:52:00,
2013-10-07 21:11:00,63.0,-99.9,-100.00,SW,225,3.0,5.0,-999,0.00,,,0.01,,2013-10-08 02:11:00,
2013-10-07 21:22:00,63.0,-99.9,-100.00,SW,225,3.0,5.0,-999,0.00,,,0.01,,2013-10-08 02:22:00,
2013-10-07 21:42:00,63.0,-99.9,-100.00,SW,234,5.0,8.0,-999,0.00,,,0.01,,2013-10-08 02:42:00,
2013-10-07 21:53:00,63.0,-99.9,-100.00,SW,234,5.0,8.0,-999,0.00,,,0.01,,2013-10-08 02:53:00,
2013-10-07 22:03:00,63.0,-99.9,-100.00,SW,234,5.0,8.0,-999,0.00,,,0.01,,2013-10-08 03:03:00,
2013-10-07 22:22:00,62.0,-99.9,-100.00,WSW,240,7.0,10.0,-999,0.00,,,0.01,,2013-10-08 03:22:00,
2013-10-07 22:44:00,62.0,-99.9,-100.00,WSW,238,6.0,9.0,-999,0.00,,,0.01,,2013-10-08 03:44:00,
2013-10-07 22:55:00,62.0,-99.9,-100.00,WSW,238,6.0,9.0,-999,0.00,,,0.01,,2013-10-08 03:55:00,
2013-10-07 23:24:00,61.0,-99.9,-100.00,WSW,242,5.0,7.0,-999,0.00,,,0.01,,2013-10-08 04:24:00,
2013-10-07 23:43:00,60.0,-99.9,-100.00,SW,219,4.0,6.0,-999,0.00,,,0.01,,2013-10-08 04:43:00,
2013-10-07 23:53:00,60.0,-99.9,-100.00,SW,219,4.0,6.0,-999,0.00,,,0.01,,2013-10-08 04:53:00,